#datetime,building,power
2022-10-05T00:00:00,mcc,59.05
2022-10-05T00:01:00,mcc,58.63
2022-10-05T00:02:00,mcc,60.43
2022-10-05T00:03:00,mcc,57.59
2022-10-05T00:04:00,mcc,57.08
2022-10-05T00:05:00,mcc,58.00
2022-10-05T00:06:00,mcc,57.78
2022-10-05T00:07:00,mcc,50.95
2022-10-05T00:08:00,mcc,49.59
2022-10-05T00:09:00,mcc,48.49
2022-10-05T00:10:00,mcc,50.83
2022-10-05T00:11:00,mcc,47.29
2022-10-05T00:12:00,mcc,46.60
2022-10-05T00:13:00,mcc,50.31
2022-10-05T00:14:00,mcc,47.41
2022-10-05T00:15:00,mcc,50.12
2022-10-05T00:16:00,mcc,49.11
2022-10-05T00:17:00,mcc,49.61
2022-10-05T00:18:00,mcc,46.60
2022-10-05T00:19:00,mcc,46.11
2022-10-05T00:20:00,mcc,44.19
2022-10-05T00:21:00,mcc,46.29
2022-10-05T00:22:00,mcc,47.20
2022-10-05T00:23:00,mcc,46.01
2022-10-05T00:24:00,mcc,47.75
2022-10-05T00:25:00,mcc,44.90
2022-10-05T00:26:00,mcc,42.56
2022-10-05T00:27:00,mcc,42.16
2022-10-05T00:28:00,mcc,43.72
2022-10-05T00:29:00,mcc,42.65
2022-10-05T00:30:00,mcc,43.72
2022-10-05T00:31:00,mcc,43.83
2022-10-05T00:32:00,mcc,45.30
2022-10-05T00:33:00,mcc,45.38
2022-10-05T00:34:00,mcc,55.39
2022-10-05T00:35:00,mcc,55.31
2022-10-05T00:36:00,mcc,42.24
2022-10-05T00:37:00,mcc,41.14
2022-10-05T00:38:00,mcc,42.58
2022-10-05T00:39:00,mcc,44.46
2022-10-05T00:40:00,mcc,42.32
2022-10-05T00:41:00,mcc,39.94
2022-10-05T00:42:00,mcc,40.36
2022-10-05T00:43:00,mcc,42.07
2022-10-05T00:44:00,mcc,41.20
2022-10-05T00:45:00,mcc,43.10
2022-10-05T00:46:00,mcc,44.62
2022-10-05T00:47:00,mcc,44.65
2022-10-05T00:48:00,mcc,43.79
2022-10-05T00:49:00,mcc,42.20
2022-10-05T00:50:00,mcc,44.82
2022-10-05T00:51:00,mcc,41.87
2022-10-05T00:52:00,mcc,42.18
2022-10-05T00:53:00,mcc,42.52
2022-10-05T00:54:00,mcc,43.12
2022-10-05T00:55:00,mcc,41.06
2022-10-05T00:56:00,mcc,42.62
2022-10-05T00:57:00,mcc,41.82
2022-10-05T00:58:00,mcc,40.42
2022-10-05T00:59:00,mcc,39.94
2022-10-05T01:00:00,mcc,39.62
2022-10-05T01:01:00,mcc,38.10
2022-10-05T01:02:00,mcc,40.44
2022-10-05T01:03:00,mcc,38.66
2022-10-05T01:04:00,mcc,39.12
2022-10-05T01:05:00,mcc,41.57
2022-10-05T01:06:00,mcc,39.74
2022-10-05T01:07:00,mcc,39.44
2022-10-05T01:08:00,mcc,40.20
2022-10-05T01:09:00,mcc,40.62
2022-10-05T01:10:00,mcc,40.13
2022-10-05T01:11:00,mcc,40.01
2022-10-05T01:12:00,mcc,39.62
2022-10-05T01:13:00,mcc,40.52
2022-10-05T01:14:00,mcc,38.76
2022-10-05T01:15:00,mcc,39.21
2022-10-05T01:16:00,mcc,38.19
2022-10-05T01:17:00,mcc,38.72
2022-10-05T01:18:00,mcc,38.22
2022-10-05T01:19:00,mcc,37.77
2022-10-05T01:20:00,mcc,48.23
2022-10-05T01:21:00,mcc,37.06
2022-10-05T01:22:00,mcc,37.42
2022-10-05T01:23:00,mcc,38.40
2022-10-05T01:24:00,mcc,38.56
2022-10-05T01:25:00,mcc,38.53
2022-10-05T01:26:00,mcc,37.32
2022-10-05T01:27:00,mcc,37.59
2022-10-05T01:28:00,mcc,36.90
2022-10-05T01:29:00,mcc,36.60
2022-10-05T01:30:00,mcc,36.63
2022-10-05T01:31:00,mcc,37.98
2022-10-05T01:32:00,mcc,35.26
2022-10-05T01:33:00,mcc,36.94
2022-10-05T01:34:00,mcc,36.40
2022-10-05T01:35:00,mcc,38.39
2022-10-05T01:36:00,mcc,35.52
2022-10-05T01:37:00,mcc,34.91
2022-10-05T01:38:00,mcc,37.89
2022-10-05T01:39:00,mcc,49.46
2022-10-05T01:40:00,mcc,40.83
2022-10-05T01:41:00,mcc,41.19
2022-10-05T01:42:00,mcc,42.04
2022-10-05T01:43:00,mcc,45.46
2022-10-05T01:44:00,mcc,55.57
2022-10-05T01:45:00,mcc,43.91
2022-10-05T01:46:00,mcc,40.15
2022-10-05T01:47:00,mcc,40.15
2022-10-05T01:48:00,mcc,40.16
2022-10-05T01:49:00,mcc,39.85
2022-10-05T01:50:00,mcc,43.90
2022-10-05T01:51:00,mcc,41.22
2022-10-05T01:52:00,mcc,40.09
2022-10-05T01:53:00,mcc,40.06
2022-10-05T01:54:00,mcc,37.62
2022-10-05T01:55:00,mcc,36.72
2022-10-05T01:56:00,mcc,38.31
2022-10-05T01:57:00,mcc,38.85
2022-10-05T01:58:00,mcc,41.18
2022-10-05T01:59:00,mcc,37.63
2022-10-05T02:00:00,mcc,38.02
2022-10-05T02:01:00,mcc,38.68
2022-10-05T02:02:00,mcc,38.51
2022-10-05T02:03:00,mcc,39.09
2022-10-05T02:04:00,mcc,38.04
2022-10-05T02:05:00,mcc,40.65
2022-10-05T02:06:00,mcc,36.40
2022-10-05T02:07:00,mcc,36.41
2022-10-05T02:08:00,mcc,36.45
2022-10-05T02:09:00,mcc,36.62
2022-10-05T02:10:00,mcc,39.31
2022-10-05T02:11:00,mcc,39.50
2022-10-05T02:12:00,mcc,39.27
2022-10-05T02:13:00,mcc,41.52
2022-10-05T02:14:00,mcc,41.20
2022-10-05T02:15:00,mcc,40.66
2022-10-05T02:16:00,mcc,39.84
2022-10-05T02:17:00,mcc,40.39
2022-10-05T02:18:00,mcc,47.35
2022-10-05T02:19:00,mcc,40.65
2022-10-05T02:20:00,mcc,39.69
2022-10-05T02:21:00,mcc,42.22
2022-10-05T02:22:00,mcc,39.76
2022-10-05T02:23:00,mcc,49.88
2022-10-05T02:24:00,mcc,47.93
2022-10-05T02:25:00,mcc,48.04
2022-10-05T02:26:00,mcc,37.57
2022-10-05T02:27:00,mcc,37.12
2022-10-05T02:28:00,mcc,38.49
2022-10-05T02:29:00,mcc,36.04
2022-10-05T02:30:00,mcc,35.77
2022-10-05T02:31:00,mcc,36.75
2022-10-05T02:32:00,mcc,39.30
2022-10-05T02:33:00,mcc,38.22
2022-10-05T02:34:00,mcc,39.18
2022-10-05T02:35:00,mcc,39.90
2022-10-05T02:36:00,mcc,42.28
2022-10-05T02:37:00,mcc,43.13
2022-10-05T02:38:00,mcc,38.98
2022-10-05T02:39:00,mcc,38.67
2022-10-05T02:40:00,mcc,40.08
2022-10-05T02:41:00,mcc,38.62
2022-10-05T02:42:00,mcc,40.63
2022-10-05T02:43:00,mcc,40.96
2022-10-05T02:44:00,mcc,42.86
2022-10-05T02:45:00,mcc,40.62
2022-10-05T02:46:00,mcc,46.32
2022-10-05T02:47:00,mcc,45.26
2022-10-05T02:48:00,mcc,43.20
2022-10-05T02:49:00,mcc,43.42
2022-10-05T02:50:00,mcc,37.02
2022-10-05T02:51:00,mcc,41.15
2022-10-05T02:52:00,mcc,39.95
2022-10-05T02:53:00,mcc,38.38
2022-10-05T02:54:00,mcc,36.65
2022-10-05T02:55:00,mcc,37.67
2022-10-05T02:56:00,mcc,44.32
2022-10-05T02:57:00,mcc,35.98
2022-10-05T02:58:00,mcc,36.86
2022-10-05T02:59:00,mcc,39.51
2022-10-05T03:00:00,mcc,36.75
2022-10-05T03:01:00,mcc,38.84
2022-10-05T03:02:00,mcc,37.72
2022-10-05T03:03:00,mcc,52.20
2022-10-05T03:04:00,mcc,52.36
2022-10-05T03:05:00,mcc,39.51
2022-10-05T03:06:00,mcc,40.41
2022-10-05T03:07:00,mcc,40.31
2022-10-05T03:08:00,mcc,41.50
2022-10-05T03:09:00,mcc,41.32
2022-10-05T03:10:00,mcc,40.74
2022-10-05T03:11:00,mcc,40.25
2022-10-05T03:12:00,mcc,39.87
2022-10-05T03:13:00,mcc,41.54
2022-10-05T03:14:00,mcc,41.76
2022-10-05T03:15:00,mcc,44.56
2022-10-05T03:16:00,mcc,49.23
2022-10-05T03:17:00,mcc,39.60
2022-10-05T03:18:00,mcc,40.27
2022-10-05T03:19:00,mcc,38.17
2022-10-05T03:20:00,mcc,37.47
2022-10-05T03:21:00,mcc,37.15
2022-10-05T03:22:00,mcc,39.32
2022-10-05T03:23:00,mcc,37.16
2022-10-05T03:24:00,mcc,37.70
2022-10-05T03:25:00,mcc,38.49
2022-10-05T03:26:00,mcc,41.01
2022-10-05T03:27:00,mcc,38.67
2022-10-05T03:28:00,mcc,39.81
2022-10-05T03:29:00,mcc,39.92
2022-10-05T03:30:00,mcc,41.11
2022-10-05T03:31:00,mcc,38.78
2022-10-05T03:32:00,mcc,37.91
2022-10-05T03:33:00,mcc,37.88
2022-10-05T03:34:00,mcc,37.39
2022-10-05T03:35:00,mcc,43.92
2022-10-05T03:36:00,mcc,38.36
2022-10-05T03:37:00,mcc,37.54
2022-10-05T03:38:00,mcc,38.52
2022-10-05T03:39:00,mcc,37.91
2022-10-05T03:40:00,mcc,38.79
2022-10-05T03:41:00,mcc,41.25
2022-10-05T03:42:00,mcc,39.68
2022-10-05T03:43:00,mcc,41.79
2022-10-05T03:44:00,mcc,41.95
2022-10-05T03:45:00,mcc,41.35
2022-10-05T03:46:00,mcc,40.96
2022-10-05T03:47:00,mcc,39.31
2022-10-05T03:48:00,mcc,40.66
2022-10-05T03:49:00,mcc,41.42
2022-10-05T03:50:00,mcc,39.20
2022-10-05T03:51:00,mcc,38.74
2022-10-05T03:52:00,mcc,39.11
2022-10-05T03:53:00,mcc,38.49
2022-10-05T03:54:00,mcc,37.53
2022-10-05T03:55:00,mcc,36.22
2022-10-05T03:56:00,mcc,36.46
2022-10-05T03:57:00,mcc,39.78
2022-10-05T03:58:00,mcc,38.27
2022-10-05T03:59:00,mcc,38.62
2022-10-05T04:00:00,mcc,38.16
2022-10-05T04:01:00,mcc,39.53
2022-10-05T04:02:00,mcc,38.13
2022-10-05T04:03:00,mcc,38.59
2022-10-05T04:04:00,mcc,39.39
2022-10-05T04:05:00,mcc,40.45
2022-10-05T04:06:00,mcc,38.72
2022-10-05T04:07:00,mcc,37.96
2022-10-05T04:08:00,mcc,39.89
2022-10-05T04:09:00,mcc,41.48
2022-10-05T04:10:00,mcc,39.32
2022-10-05T04:11:00,mcc,53.42
2022-10-05T04:12:00,mcc,39.54
2022-10-05T04:13:00,mcc,41.24
2022-10-05T04:14:00,mcc,48.73
2022-10-05T04:15:00,mcc,41.04
2022-10-05T04:16:00,mcc,42.53
2022-10-05T04:17:00,mcc,44.47
2022-10-05T04:18:00,mcc,41.96
2022-10-05T04:19:00,mcc,42.73
2022-10-05T04:20:00,mcc,43.18
2022-10-05T04:21:00,mcc,45.77
2022-10-05T04:22:00,mcc,43.16
2022-10-05T04:23:00,mcc,40.21
2022-10-05T04:24:00,mcc,38.00
2022-10-05T04:25:00,mcc,40.14
2022-10-05T04:26:00,mcc,37.64
2022-10-05T04:27:00,mcc,36.04
2022-10-05T04:28:00,mcc,38.13
2022-10-05T04:29:00,mcc,37.66
2022-10-05T04:30:00,mcc,39.29
2022-10-05T04:31:00,mcc,38.10
2022-10-05T04:32:00,mcc,39.97
2022-10-05T04:33:00,mcc,38.35
2022-10-05T04:34:00,mcc,38.95
2022-10-05T04:35:00,mcc,38.20
2022-10-05T04:36:00,mcc,39.53
2022-10-05T04:37:00,mcc,40.40
2022-10-05T04:38:00,mcc,41.07
2022-10-05T04:39:00,mcc,40.02
2022-10-05T04:40:00,mcc,39.73
2022-10-05T04:41:00,mcc,41.05
2022-10-05T04:42:00,mcc,40.42
2022-10-05T04:43:00,mcc,41.90
2022-10-05T04:44:00,mcc,42.28
2022-10-05T04:45:00,mcc,40.51
2022-10-05T04:46:00,mcc,41.48
2022-10-05T04:47:00,mcc,42.21
2022-10-05T04:48:00,mcc,51.55
2022-10-05T04:49:00,mcc,49.29
2022-10-05T04:50:00,mcc,48.84
2022-10-05T04:51:00,mcc,50.14
2022-10-05T04:52:00,mcc,51.55
2022-10-05T04:53:00,mcc,57.31
2022-10-05T04:54:00,mcc,49.84
2022-10-05T04:55:00,mcc,48.77
2022-10-05T04:56:00,mcc,50.39
2022-10-05T04:57:00,mcc,45.73
2022-10-05T04:58:00,mcc,46.08
2022-10-05T04:59:00,mcc,46.13
2022-10-05T05:00:00,mcc,47.66
2022-10-05T05:01:00,mcc,46.41
2022-10-05T05:02:00,mcc,47.40
2022-10-05T05:03:00,mcc,48.46
2022-10-05T05:04:00,mcc,49.62
2022-10-05T05:05:00,mcc,48.56
2022-10-05T05:06:00,mcc,46.69
2022-10-05T05:07:00,mcc,48.64
2022-10-05T05:08:00,mcc,52.75
2022-10-05T05:09:00,mcc,49.75
2022-10-05T05:10:00,mcc,49.52
2022-10-05T05:11:00,mcc,48.78
2022-10-05T05:12:00,mcc,52.75
2022-10-05T05:13:00,mcc,50.25
2022-10-05T05:14:00,mcc,49.84
2022-10-05T05:15:00,mcc,47.73
2022-10-05T05:16:00,mcc,48.34
2022-10-05T05:17:00,mcc,45.62
2022-10-05T05:18:00,mcc,46.48
2022-10-05T05:19:00,mcc,58.52
2022-10-05T05:20:00,mcc,61.97
2022-10-05T05:21:00,mcc,48.39
2022-10-05T05:22:00,mcc,49.71
2022-10-05T05:23:00,mcc,49.26
2022-10-05T05:24:00,mcc,49.95
2022-10-05T05:25:00,mcc,48.10
2022-10-05T05:26:00,mcc,48.81
2022-10-05T05:27:00,mcc,48.70
2022-10-05T05:28:00,mcc,48.02
2022-10-05T05:29:00,mcc,47.69
2022-10-05T05:30:00,mcc,48.60
2022-10-05T05:31:00,mcc,47.39
2022-10-05T05:32:00,mcc,53.85
2022-10-05T05:33:00,mcc,44.38
2022-10-05T05:34:00,mcc,45.65
2022-10-05T05:35:00,mcc,46.68
2022-10-05T05:36:00,mcc,48.40
2022-10-05T05:37:00,mcc,45.97
2022-10-05T05:38:00,mcc,46.97
2022-10-05T05:39:00,mcc,48.83
2022-10-05T05:40:00,mcc,52.03
2022-10-05T05:41:00,mcc,47.72
2022-10-05T05:42:00,mcc,49.07
2022-10-05T05:43:00,mcc,48.36
2022-10-05T05:44:00,mcc,50.92
2022-10-05T05:45:00,mcc,48.16
2022-10-05T05:46:00,mcc,49.90
2022-10-05T05:47:00,mcc,47.99
2022-10-05T05:48:00,mcc,46.14
2022-10-05T05:49:00,mcc,39.12
2022-10-05T05:50:00,mcc,38.69
2022-10-05T05:51:00,mcc,46.81
2022-10-05T05:52:00,mcc,39.95
2022-10-05T05:53:00,mcc,40.04
2022-10-05T05:54:00,mcc,40.36
2022-10-05T05:55:00,mcc,42.67
2022-10-05T05:56:00,mcc,39.37
2022-10-05T05:57:00,mcc,40.70
2022-10-05T05:58:00,mcc,42.36
2022-10-05T05:59:00,mcc,44.98
2022-10-05T06:00:00,mcc,43.20
2022-10-05T06:01:00,mcc,42.83
2022-10-05T06:02:00,mcc,40.98
2022-10-05T06:03:00,mcc,41.41
2022-10-05T06:04:00,mcc,39.17
2022-10-05T06:05:00,mcc,39.07
2022-10-05T06:06:00,mcc,38.24
2022-10-05T06:07:00,mcc,38.71
2022-10-05T06:08:00,mcc,39.27
2022-10-05T06:09:00,mcc,38.75
2022-10-05T06:10:00,mcc,39.54
2022-10-05T06:11:00,mcc,48.19
2022-10-05T06:12:00,mcc,40.36
2022-10-05T06:13:00,mcc,42.21
2022-10-05T06:14:00,mcc,41.79
2022-10-05T06:15:00,mcc,48.04
2022-10-05T06:16:00,mcc,44.91
2022-10-05T06:17:00,mcc,45.62
2022-10-05T06:18:00,mcc,44.98
2022-10-05T06:19:00,mcc,47.96
2022-10-05T06:20:00,mcc,46.00
2022-10-05T06:21:00,mcc,43.38
2022-10-05T06:22:00,mcc,43.91
2022-10-05T06:23:00,mcc,46.33
2022-10-05T06:24:00,mcc,43.79
2022-10-05T06:25:00,mcc,42.54
2022-10-05T06:26:00,mcc,41.12
2022-10-05T06:27:00,mcc,56.02
2022-10-05T06:28:00,mcc,54.88
2022-10-05T06:29:00,mcc,43.20
2022-10-05T06:30:00,mcc,57.01
2022-10-05T06:31:00,mcc,51.22
2022-10-05T06:32:00,mcc,65.19
2022-10-05T06:33:00,mcc,50.55
2022-10-05T06:34:00,mcc,43.44
2022-10-05T06:35:00,mcc,53.41
2022-10-05T06:36:00,mcc,54.80
2022-10-05T06:37:00,mcc,65.30
2022-10-05T06:38:00,mcc,66.46
2022-10-05T06:39:00,mcc,82.32
2022-10-05T06:40:00,mcc,58.19
2022-10-05T06:41:00,mcc,61.23
2022-10-05T06:42:00,mcc,78.39
2022-10-05T06:43:00,mcc,54.55
2022-10-05T06:44:00,mcc,60.74
2022-10-05T06:45:00,mcc,63.10
2022-10-05T06:46:00,mcc,61.71
2022-10-05T06:47:00,mcc,63.01
2022-10-05T06:48:00,mcc,58.59
2022-10-05T06:49:00,mcc,57.40
2022-10-05T06:50:00,mcc,62.61
2022-10-05T06:51:00,mcc,64.60
2022-10-05T06:52:00,mcc,61.76
2022-10-05T06:53:00,mcc,57.84
2022-10-05T06:54:00,mcc,57.94
2022-10-05T06:55:00,mcc,57.35
2022-10-05T06:56:00,mcc,54.20
2022-10-05T06:57:00,mcc,55.02
2022-10-05T06:58:00,mcc,57.01
2022-10-05T06:59:00,mcc,61.56
2022-10-05T07:00:00,mcc,60.15
2022-10-05T07:01:00,mcc,58.58
2022-10-05T07:02:00,mcc,62.15
2022-10-05T07:03:00,mcc,56.58
2022-10-05T07:04:00,mcc,55.60
2022-10-05T07:05:00,mcc,53.19
2022-10-05T07:06:00,mcc,47.99
2022-10-05T07:07:00,mcc,49.19
2022-10-05T07:08:00,mcc,59.66
2022-10-05T07:09:00,mcc,56.25
2022-10-05T07:10:00,mcc,48.77
2022-10-05T07:11:00,mcc,49.61
2022-10-05T07:12:00,mcc,53.44
2022-10-05T07:13:00,mcc,51.89
2022-10-05T07:14:00,mcc,62.04
2022-10-05T07:15:00,mcc,54.96
2022-10-05T07:16:00,mcc,56.28
2022-10-05T07:17:00,mcc,61.96
2022-10-05T07:18:00,mcc,59.19
2022-10-05T07:19:00,mcc,51.36
2022-10-05T07:20:00,mcc,54.00
2022-10-05T07:21:00,mcc,51.96
2022-10-05T07:22:00,mcc,51.67
2022-10-05T07:23:00,mcc,57.89
2022-10-05T07:24:00,mcc,53.57
2022-10-05T07:25:00,mcc,60.16
2022-10-05T07:26:00,mcc,54.25
2022-10-05T07:27:00,mcc,54.72
2022-10-05T07:28:00,mcc,56.90
2022-10-05T07:29:00,mcc,51.20
2022-10-05T07:30:00,mcc,50.62
2022-10-05T07:31:00,mcc,49.87
2022-10-05T07:32:00,mcc,50.57
2022-10-05T07:33:00,mcc,61.79
2022-10-05T07:34:00,mcc,53.38
2022-10-05T07:35:00,mcc,53.18
2022-10-05T07:36:00,mcc,52.38
2022-10-05T07:37:00,mcc,51.13
2022-10-05T07:38:00,mcc,50.88
2022-10-05T07:39:00,mcc,59.73
2022-10-05T07:40:00,mcc,53.51
2022-10-05T07:41:00,mcc,52.69
2022-10-05T07:42:00,mcc,51.92
2022-10-05T07:43:00,mcc,51.13
2022-10-05T07:44:00,mcc,53.64
2022-10-05T07:45:00,mcc,60.05
2022-10-05T07:46:00,mcc,52.30
2022-10-05T07:47:00,mcc,53.91
2022-10-05T07:48:00,mcc,55.72
2022-10-05T07:49:00,mcc,53.02
2022-10-05T07:50:00,mcc,54.95
2022-10-05T07:51:00,mcc,62.27
2022-10-05T07:52:00,mcc,57.63
2022-10-05T07:53:00,mcc,55.17
2022-10-05T07:54:00,mcc,54.14
2022-10-05T07:55:00,mcc,54.63
2022-10-05T07:56:00,mcc,56.63
2022-10-05T07:57:00,mcc,62.06
2022-10-05T07:58:00,mcc,53.05
2022-10-05T07:59:00,mcc,52.90
2022-10-05T08:00:00,mcc,53.52
2022-10-05T08:01:00,mcc,53.01
2022-10-05T08:02:00,mcc,56.45
2022-10-05T08:03:00,mcc,51.88
2022-10-05T08:04:00,mcc,56.41
2022-10-05T08:05:00,mcc,67.83
2022-10-05T08:06:00,mcc,54.83
2022-10-05T08:07:00,mcc,57.95
2022-10-05T08:08:00,mcc,59.54
2022-10-05T08:09:00,mcc,67.65
2022-10-05T08:10:00,mcc,58.34
2022-10-05T08:11:00,mcc,57.20
2022-10-05T08:12:00,mcc,60.60
2022-10-05T08:13:00,mcc,57.70
2022-10-05T08:14:00,mcc,59.27
2022-10-05T08:15:00,mcc,64.24
2022-10-05T08:16:00,mcc,58.14
2022-10-05T08:17:00,mcc,55.87
2022-10-05T08:18:00,mcc,56.00
2022-10-05T08:19:00,mcc,54.14
2022-10-05T08:20:00,mcc,57.65
2022-10-05T08:21:00,mcc,61.10
2022-10-05T08:22:00,mcc,53.38
2022-10-05T08:23:00,mcc,54.65
2022-10-05T08:24:00,mcc,59.21
2022-10-05T08:25:00,mcc,66.95
2022-10-05T08:26:00,mcc,57.84
2022-10-05T08:27:00,mcc,64.70
2022-10-05T08:28:00,mcc,57.77
2022-10-05T08:29:00,mcc,53.93
2022-10-05T08:30:00,mcc,52.86
2022-10-05T08:31:00,mcc,53.52
2022-10-05T08:32:00,mcc,71.73
2022-10-05T08:33:00,mcc,64.10
2022-10-05T08:34:00,mcc,57.09
2022-10-05T08:35:00,mcc,57.56
2022-10-05T08:36:00,mcc,58.81
2022-10-05T08:37:00,mcc,60.43
2022-10-05T08:38:00,mcc,60.88
2022-10-05T08:39:00,mcc,58.68
2022-10-05T08:40:00,mcc,58.86
2022-10-05T08:41:00,mcc,58.61
2022-10-05T08:42:00,mcc,56.65
2022-10-05T08:43:00,mcc,58.14
2022-10-05T08:44:00,mcc,65.46
2022-10-05T08:45:00,mcc,59.69
2022-10-05T08:46:00,mcc,66.84
2022-10-05T08:47:00,mcc,57.52
2022-10-05T08:48:00,mcc,58.79
2022-10-05T08:49:00,mcc,57.46
2022-10-05T08:50:00,mcc,61.03
2022-10-05T08:51:00,mcc,59.17
2022-10-05T08:52:00,mcc,60.32
2022-10-05T08:53:00,mcc,67.62
2022-10-05T08:54:00,mcc,59.24
2022-10-05T08:55:00,mcc,61.73
2022-10-05T08:56:00,mcc,59.48
2022-10-05T08:57:00,mcc,61.71
2022-10-05T08:58:00,mcc,58.59
2022-10-05T08:59:00,mcc,59.41
2022-10-05T09:00:00,mcc,57.53
2022-10-05T09:01:00,mcc,56.03
2022-10-05T09:02:00,mcc,68.44
2022-10-05T09:03:00,mcc,58.20
2022-10-05T09:04:00,mcc,57.48
2022-10-05T09:05:00,mcc,60.03
2022-10-05T09:06:00,mcc,61.78
2022-10-05T09:07:00,mcc,60.13
2022-10-05T09:08:00,mcc,60.52
2022-10-05T09:09:00,mcc,70.53
2022-10-05T09:10:00,mcc,59.46
2022-10-05T09:11:00,mcc,59.04
2022-10-05T09:12:00,mcc,59.25
2022-10-05T09:13:00,mcc,56.17
2022-10-05T09:14:00,mcc,54.27
2022-10-05T09:15:00,mcc,76.53
2022-10-05T09:16:00,mcc,55.49
2022-10-05T09:17:00,mcc,55.38
2022-10-05T09:18:00,mcc,58.02
2022-10-05T09:19:00,mcc,59.53
2022-10-05T09:20:00,mcc,57.23
2022-10-05T09:21:00,mcc,65.99
2022-10-05T09:22:00,mcc,58.70
2022-10-05T09:23:00,mcc,55.52
2022-10-05T09:24:00,mcc,56.65
2022-10-05T09:25:00,mcc,60.24
2022-10-05T09:26:00,mcc,62.46
2022-10-05T09:27:00,mcc,59.21
2022-10-05T09:28:00,mcc,65.79
2022-10-05T09:29:00,mcc,59.33
2022-10-05T09:30:00,mcc,56.18
2022-10-05T09:31:00,mcc,57.29
2022-10-05T09:32:00,mcc,58.93
2022-10-05T09:33:00,mcc,58.69
2022-10-05T09:34:00,mcc,59.02
2022-10-05T09:35:00,mcc,75.17
2022-10-05T09:36:00,mcc,55.80
2022-10-05T09:37:00,mcc,56.38
2022-10-05T09:38:00,mcc,73.00
2022-10-05T09:39:00,mcc,55.35
2022-10-05T09:40:00,mcc,54.19
2022-10-05T09:41:00,mcc,62.61
2022-10-05T09:42:00,mcc,60.10
2022-10-05T09:43:00,mcc,63.35
2022-10-05T09:44:00,mcc,77.32
2022-10-05T09:45:00,mcc,65.54
2022-10-05T09:46:00,mcc,65.29
2022-10-05T09:47:00,mcc,56.97
2022-10-05T09:48:00,mcc,57.17
2022-10-05T09:49:00,mcc,56.78
2022-10-05T09:50:00,mcc,56.41
2022-10-05T09:51:00,mcc,82.65
2022-10-05T09:52:00,mcc,57.10
2022-10-05T09:53:00,mcc,57.67
2022-10-05T09:54:00,mcc,61.23
2022-10-05T09:55:00,mcc,57.83
2022-10-05T09:56:00,mcc,65.29
2022-10-05T09:57:00,mcc,53.87
2022-10-05T09:58:00,mcc,63.14
2022-10-05T09:59:00,mcc,71.29
2022-10-05T10:00:00,mcc,62.60
2022-10-05T10:01:00,mcc,66.08
2022-10-05T10:02:00,mcc,62.99
2022-10-05T10:03:00,mcc,62.56
2022-10-05T10:04:00,mcc,61.64
2022-10-05T10:05:00,mcc,64.51
2022-10-05T10:06:00,mcc,64.21
2022-10-05T10:07:00,mcc,67.56
2022-10-05T10:08:00,mcc,66.08
2022-10-05T10:09:00,mcc,67.21
2022-10-05T10:10:00,mcc,76.25
2022-10-05T10:11:00,mcc,67.31
2022-10-05T10:12:00,mcc,68.33
2022-10-05T10:13:00,mcc,69.11
2022-10-05T10:14:00,mcc,67.94
2022-10-05T10:15:00,mcc,64.15
2022-10-05T10:16:00,mcc,69.04
2022-10-05T10:17:00,mcc,74.85
2022-10-05T10:18:00,mcc,75.24
2022-10-05T10:19:00,mcc,67.40
2022-10-05T10:20:00,mcc,67.93
2022-10-05T10:21:00,mcc,71.55
2022-10-05T10:22:00,mcc,67.42
2022-10-05T10:23:00,mcc,76.90
2022-10-05T10:24:00,mcc,66.61
2022-10-05T10:25:00,mcc,63.35
2022-10-05T10:26:00,mcc,64.76
2022-10-05T10:27:00,mcc,66.53
2022-10-05T10:28:00,mcc,65.22
2022-10-05T10:29:00,mcc,63.90
2022-10-05T10:30:00,mcc,63.76
2022-10-05T10:31:00,mcc,63.45
2022-10-05T10:32:00,mcc,63.91
2022-10-05T10:33:00,mcc,62.21
2022-10-05T10:34:00,mcc,61.50
2022-10-05T10:35:00,mcc,63.57
2022-10-05T10:36:00,mcc,77.03
2022-10-05T10:37:00,mcc,74.09
2022-10-05T10:38:00,mcc,65.69
2022-10-05T10:39:00,mcc,67.73
2022-10-05T10:40:00,mcc,65.44
2022-10-05T10:41:00,mcc,64.32
2022-10-05T10:42:00,mcc,67.20
2022-10-05T10:43:00,mcc,75.71
2022-10-05T10:44:00,mcc,63.72
2022-10-05T10:45:00,mcc,65.26
2022-10-05T10:46:00,mcc,64.49
2022-10-05T10:47:00,mcc,59.65
2022-10-05T10:48:00,mcc,62.41
2022-10-05T10:49:00,mcc,84.44
2022-10-05T10:50:00,mcc,74.09
2022-10-05T10:51:00,mcc,77.29
2022-10-05T10:52:00,mcc,67.85
2022-10-05T10:53:00,mcc,65.47
2022-10-05T10:54:00,mcc,65.45
2022-10-05T10:55:00,mcc,63.26
2022-10-05T10:56:00,mcc,72.98
2022-10-05T10:57:00,mcc,64.91
2022-10-05T10:58:00,mcc,65.59
2022-10-05T10:59:00,mcc,75.93
2022-10-05T11:00:00,mcc,67.40
2022-10-05T11:01:00,mcc,68.22
2022-10-05T11:02:00,mcc,65.03
2022-10-05T11:03:00,mcc,65.01
2022-10-05T11:04:00,mcc,66.88
2022-10-05T11:05:00,mcc,64.80
2022-10-05T11:06:00,mcc,75.18
2022-10-05T11:07:00,mcc,74.72
2022-10-05T11:08:00,mcc,65.99
2022-10-05T11:09:00,mcc,67.75
2022-10-05T11:10:00,mcc,67.12
2022-10-05T11:11:00,mcc,73.71
2022-10-05T11:12:00,mcc,68.26
2022-10-05T11:13:00,mcc,66.36
2022-10-05T11:14:00,mcc,67.72
2022-10-05T11:15:00,mcc,75.09
2022-10-05T11:16:00,mcc,64.28
2022-10-05T11:17:00,mcc,88.22
2022-10-05T11:18:00,mcc,67.37
2022-10-05T11:19:00,mcc,69.73
2022-10-05T11:20:00,mcc,69.95
2022-10-05T11:21:00,mcc,72.72
2022-10-05T11:22:00,mcc,68.94
2022-10-05T11:23:00,mcc,68.40
2022-10-05T11:24:00,mcc,63.35
2022-10-05T11:25:00,mcc,61.06
2022-10-05T11:26:00,mcc,67.13
2022-10-05T11:27:00,mcc,64.98
2022-10-05T11:28:00,mcc,64.45
2022-10-05T11:29:00,mcc,66.52
2022-10-05T11:30:00,mcc,67.95
2022-10-05T11:31:00,mcc,64.46
2022-10-05T11:32:00,mcc,71.73
2022-10-05T11:33:00,mcc,63.83
2022-10-05T11:34:00,mcc,70.84
2022-10-05T11:35:00,mcc,65.03
2022-10-05T11:36:00,mcc,65.14
2022-10-05T11:37:00,mcc,75.92
2022-10-05T11:38:00,mcc,69.76
2022-10-05T11:39:00,mcc,75.36
2022-10-05T11:40:00,mcc,68.47
2022-10-05T11:41:00,mcc,69.79
2022-10-05T11:42:00,mcc,83.85
2022-10-05T11:43:00,mcc,70.60
2022-10-05T11:44:00,mcc,70.87
2022-10-05T11:45:00,mcc,75.46
2022-10-05T11:46:00,mcc,69.67
2022-10-05T11:47:00,mcc,70.27
2022-10-05T11:48:00,mcc,67.52
2022-10-05T11:49:00,mcc,70.20
2022-10-05T11:50:00,mcc,71.95
2022-10-05T11:51:00,mcc,67.41
2022-10-05T11:52:00,mcc,72.66
2022-10-05T11:53:00,mcc,73.71
2022-10-05T11:54:00,mcc,65.05
2022-10-05T11:55:00,mcc,65.03
2022-10-05T11:56:00,mcc,67.59
2022-10-05T11:57:00,mcc,64.78
2022-10-05T11:58:00,mcc,66.01
2022-10-05T11:59:00,mcc,63.47
2022-10-05T12:00:00,mcc,64.26
2022-10-05T12:01:00,mcc,62.62
2022-10-05T12:02:00,mcc,60.88
2022-10-05T12:03:00,mcc,64.06
2022-10-05T12:04:00,mcc,63.51
2022-10-05T12:05:00,mcc,73.84
2022-10-05T12:06:00,mcc,67.38
2022-10-05T12:07:00,mcc,66.70
2022-10-05T12:08:00,mcc,66.55
2022-10-05T12:09:00,mcc,65.49
2022-10-05T12:10:00,mcc,64.07
2022-10-05T12:11:00,mcc,67.33
2022-10-05T12:12:00,mcc,66.14
2022-10-05T12:13:00,mcc,72.74
2022-10-05T12:14:00,mcc,64.85
2022-10-05T12:15:00,mcc,66.72
2022-10-05T12:16:00,mcc,66.91
2022-10-05T12:17:00,mcc,69.28
2022-10-05T12:18:00,mcc,73.39
2022-10-05T12:19:00,mcc,67.77
2022-10-05T12:20:00,mcc,65.03
2022-10-05T12:21:00,mcc,62.43
2022-10-05T12:22:00,mcc,63.40
2022-10-05T12:23:00,mcc,62.84
2022-10-05T12:24:00,mcc,67.56
2022-10-05T12:25:00,mcc,77.11
2022-10-05T12:26:00,mcc,67.95
2022-10-05T12:27:00,mcc,67.54
2022-10-05T12:28:00,mcc,66.89
2022-10-05T12:29:00,mcc,66.73
2022-10-05T12:30:00,mcc,66.20
2022-10-05T12:31:00,mcc,66.87
2022-10-05T12:32:00,mcc,74.25
2022-10-05T12:33:00,mcc,65.97
2022-10-05T12:34:00,mcc,68.01
2022-10-05T12:35:00,mcc,68.24
2022-10-05T12:36:00,mcc,64.66
2022-10-05T12:37:00,mcc,68.73
2022-10-05T12:38:00,mcc,72.08
2022-10-05T12:39:00,mcc,62.40
2022-10-05T12:40:00,mcc,62.70
2022-10-05T12:41:00,mcc,62.44
2022-10-05T12:42:00,mcc,62.29
2022-10-05T12:43:00,mcc,63.38
2022-10-05T12:44:00,mcc,64.78
2022-10-05T12:45:00,mcc,70.36
2022-10-05T12:46:00,mcc,63.09
2022-10-05T12:47:00,mcc,67.06
2022-10-05T12:48:00,mcc,66.61
2022-10-05T12:49:00,mcc,77.87
2022-10-05T12:50:00,mcc,66.75
2022-10-05T12:51:00,mcc,72.32
2022-10-05T12:52:00,mcc,65.69
2022-10-05T12:53:00,mcc,69.90
2022-10-05T12:54:00,mcc,67.52
2022-10-05T12:55:00,mcc,68.05
2022-10-05T12:56:00,mcc,66.40
2022-10-05T12:57:00,mcc,77.91
2022-10-05T12:58:00,mcc,70.19
2022-10-05T12:59:00,mcc,69.72
2022-10-05T13:00:00,mcc,67.56
2022-10-05T13:01:00,mcc,72.04
2022-10-05T13:02:00,mcc,68.78
2022-10-05T13:03:00,mcc,69.26
2022-10-05T13:04:00,mcc,76.88
2022-10-05T13:05:00,mcc,67.09
2022-10-05T13:06:00,mcc,66.33
2022-10-05T13:07:00,mcc,66.01
2022-10-05T13:08:00,mcc,67.62
2022-10-05T13:09:00,mcc,65.48
2022-10-05T13:10:00,mcc,69.38
2022-10-05T13:11:00,mcc,75.74
2022-10-05T13:12:00,mcc,67.17
2022-10-05T13:13:00,mcc,65.25
2022-10-05T13:14:00,mcc,66.58
2022-10-05T13:15:00,mcc,66.37
2022-10-05T13:16:00,mcc,65.12
2022-10-05T13:17:00,mcc,72.99
2022-10-05T13:18:00,mcc,65.47